loading
|

WESTFORD NEEDLES, 2367

Orbit data source: Space-Track

WESTFORD NEEDLES, 2367 is space debris in HEO originally from a launch on Thu, 09 May 1963 UTC launched from the Air Force Western Test Range (AFWTR). Debris objects in space refer to the collection of defunct objects orbiting the Earth. Examples of debris include non-operational satellites, rocket bodies, and fragments generated from explosions, collisions, or faulty payload assembly.

Loading next visibility...
Next conjunction unknown
Loading greatness...
WESTFORD NEEDLES details
Identifier
2367, 1963-014S
Orbit
HEO
Last TLE update4 months ago
Origin
Flag of USUSAF SSD (US)
ManufacturerUnknown
MissionSpacecraft
Bus & MotorUnknown bus, Unknown motor
MassUnknown
Launch date (UTC)
1963-05-09 (61 years ago)
Launch vehicleUnknown
Launch site
Air Force Western Test Range (AFWTR)
Object type
Payload
Rocket body
Debris
Shape & HBRUnknown
Radar Cross SectionMedium (>0.1 m² and <1 m²)

Expand to show TLE details & history

TLE from 4 months ago
0 WESTFORD NEEDLES
1 02367U 63014S   24174.15057807 -.00000003  00000-0  00000-0 0  9997
2 02367  84.9462 235.4878 2539886 282.9809  50.1843  8.87712911947228
Epoch: 2024-06-22T03:36Z
Definitive object data (Epoch: 2024-06-22T03:36:49.945Z)
Latitude-0.00001°
Longitude-89.53835°
Altitude2,347.429 km
Speed7.137 km/s
True Right ascension15h 41m 57s
True Declination0° 00' 00"
Sunlit
Object was in full shadow at TLE epoch
Predictive object data (real-time)
Latitude49.09408°
Longitude60.00284°
Altitude1,051.05 km
Speed8.186 km/s
Apparent Right ascension01h 25m 32s
Apparent Declination8° 51' 53"
Sunlit
Object is in daylight
Predictive observer data (real-time)
Local Sidereal Time13:11:03
Azimuth355.247° N
Elevation-41.104°
Doppler factor1
Orbital elements
Apogee5,973.969 km
Perigee970.264 km
Semi-major axis9,850.254 km
Eccentricity0.2539886
Inclination84.9462°
RAAN235.4878°
Arg. of periapsis282.9809°
True anomaly77.12024°
Mean anomaly50.1843°
Eccentric anomaly63.17022°
Mean motion2.2201 °/min
BSTARUnknown
Period162.16 mins
No data available

WESTFORD NEEDLES Visibility forecast

Observer location: 39.9160978°, -105.1181434

Span
Click to sort rows by Start time (UTC) header in descending order
Start Az.
Max El. time (UTC)
Max El. Az.
Max El.
End time (UTC)
End Az.
41 mins2024-10-12 20:28:11.977Z198.36° SSW2024-10-12 20:55:11.977Z273.527° WNW40.545°2024-10-12 21:09:11.977Z356.248° N
4 mins2024-10-13 05:32:11.977Z43.86° NE2024-10-13 05:34:11.977Z65.582° ENE13.76°2024-10-13 05:36:11.977Z88.322° E
8 mins2024-10-13 08:14:11.977Z325.763° NNW2024-10-13 08:17:11.977Z287.026° WNW25.808°2024-10-13 08:22:11.977Z220.116° SW
35 mins2024-10-13 18:09:11.977Z151.07° SSE2024-10-13 18:33:11.977Z87.113° E38.584°2024-10-13 18:44:11.977Z20.698° NNE